![]() |
EMODnet Physics ERDDAP
Easier access to scientific data |
log in|
Brought to you by EMODnet Physics |
| Dataset Title: | NDBC - Collection of dew point temperature (DEWT) TimeSeries - IN SITU MultiPointTimeSeriesObservation
|
| Institution: | NDBC (Dataset ID: TS_DEWT_NDBC) |
| Information: | Summary
| License
| FGDC
| ISO 19115
| Metadata
| Background
| Subset
| Data Access Form
| Make a graph
|
| Name | Last modified | Size | Description | |
|---|---|---|---|---|
| Parent Directory | - | - | ||
| 46042_TS_DEWT_012000.nc | 26-Dec-2024 17:59 | 480315 | ||
| 46042_TS_DEWT_012001.nc | 26-Dec-2024 18:03 | 479824 | ||
| 46042_TS_DEWT_012002.nc | 26-Dec-2024 18:06 | 481484 | ||
| 46042_TS_DEWT_012020.nc | 26-Dec-2024 18:54 | 480877 | ||
| 46042_TS_DEWT_012021.nc | 26-Dec-2024 18:59 | 481332 | ||
| 46042_TS_DEWT_022000.nc | 26-Dec-2024 18:00 | 481302 | ||
| 46042_TS_DEWT_022001.nc | 26-Dec-2024 18:03 | 4308715 | ||
| 46042_TS_DEWT_022002.nc | 26-Dec-2024 18:07 | 439313 | ||
| 46042_TS_DEWT_022020.nc | 26-Dec-2024 18:54 | 437253 | ||
| 46042_TS_DEWT_022021.nc | 26-Dec-2024 19:00 | 632011 | ||
| 46042_TS_DEWT_032000.nc | 26-Dec-2024 18:00 | 631165 | ||
| 46042_TS_DEWT_032002.nc | 26-Dec-2024 18:07 | 629683 | ||
| 46042_TS_DEWT_032020.nc | 26-Dec-2024 18:55 | 630756 | ||
| 46042_TS_DEWT_032021.nc | 26-Dec-2024 19:00 | 630466 | ||
| 46042_TS_DEWT_042000.nc | 26-Dec-2024 18:00 | 630189 | ||
| 46042_TS_DEWT_042002.nc | 26-Dec-2024 18:07 | 4889652 | ||
| 46042_TS_DEWT_042020.nc | 26-Dec-2024 18:55 | 480790 | ||
| 46042_TS_DEWT_042021.nc | 26-Dec-2024 19:00 | 479952 | ||
| 46042_TS_DEWT_052000.nc | 26-Dec-2024 18:00 | 479469 | ||
| 46042_TS_DEWT_052002.nc | 26-Dec-2024 18:07 | 479287 | ||
| 46042_TS_DEWT_052020.nc | 26-Dec-2024 18:56 | 480660 | ||
| 46042_TS_DEWT_052021.nc | 26-Dec-2024 19:01 | 482088 | ||
| 46042_TS_DEWT_052023.nc | 26-Dec-2024 19:11 | 451481 | ||
| 46042_TS_DEWT_062000.nc | 26-Dec-2024 18:01 | 479957 | ||
| 46042_TS_DEWT_062001.nc | 26-Dec-2024 18:04 | 4502450 | ||
| 46042_TS_DEWT_062002.nc | 26-Dec-2024 18:08 | 630076 | ||
| 46042_TS_DEWT_062020.nc | 26-Dec-2024 18:56 | 630831 | ||
| 46042_TS_DEWT_062023.nc | 26-Dec-2024 19:11 | 631510 | ||
| 46042_TS_DEWT_072000.nc | 26-Dec-2024 18:01 | 632415 | ||
| 46042_TS_DEWT_072001.nc | 26-Dec-2024 18:04 | 631290 | ||
| 46042_TS_DEWT_072002.nc | 26-Dec-2024 18:08 | 629355 | ||
| 46042_TS_DEWT_072020.nc | 26-Dec-2024 18:57 | 448305 | ||
| 46042_TS_DEWT_072023.nc | 26-Dec-2024 19:12 | 438765 | ||
| 46042_TS_DEWT_081999.nc | 26-Dec-2024 17:58 | 419285 | ||
| 46042_TS_DEWT_082000.nc | 26-Dec-2024 18:01 | 4177323 | ||
| 46042_TS_DEWT_082001.nc | 26-Dec-2024 18:05 | 629612 | ||
| 46042_TS_DEWT_082002.nc | 26-Dec-2024 18:08 | 628600 | ||
| 46042_TS_DEWT_082020.nc | 26-Dec-2024 18:57 | 461900 | ||
| 46042_TS_DEWT_082023.nc | 26-Dec-2024 19:12 | 629827 | ||
| 46042_TS_DEWT_091999.nc | 26-Dec-2024 17:58 | 630123 | ||
| 46042_TS_DEWT_092000.nc | 26-Dec-2024 18:02 | 628116 | ||
| 46042_TS_DEWT_092001.nc | 26-Dec-2024 18:05 | 451459 | ||
| 46042_TS_DEWT_092002.nc | 26-Dec-2024 18:09 | 451265 | ||
| 46042_TS_DEWT_092020.nc | 26-Dec-2024 18:57 | 479243 | ||
| 46042_TS_DEWT_092023.nc | 26-Dec-2024 19:13 | 4758455 | ||
| 46042_TS_DEWT_101999.nc | 26-Dec-2024 17:58 | 480091 | ||
| 46042_TS_DEWT_102000.nc | 26-Dec-2024 18:02 | 481154 | ||
| 46042_TS_DEWT_102001.nc | 26-Dec-2024 18:05 | 451211 | ||
| 46042_TS_DEWT_102020.nc | 26-Dec-2024 18:58 | 481751 | ||
| 46042_TS_DEWT_102023.nc | 26-Dec-2024 19:13 | 479797 | ||
| 46042_TS_DEWT_111999.nc | 26-Dec-2024 17:59 | 480597 | ||
| 46042_TS_DEWT_112000.nc | 26-Dec-2024 18:02 | 438060 | ||
| 46042_TS_DEWT_112001.nc | 26-Dec-2024 18:06 | 479397 | ||
| 46042_TS_DEWT_112019.nc | 26-Dec-2024 18:53 | 477859 | ||
| 46042_TS_DEWT_112020.nc | 26-Dec-2024 18:58 | 4151454 | ||
| 46042_TS_DEWT_112023.nc | 26-Dec-2024 19:14 | 629717 | ||
| 46042_TS_DEWT_121999.nc | 26-Dec-2024 17:59 | 629471 | ||
| 46042_TS_DEWT_122000.nc | 26-Dec-2024 18:02 | 629388 | ||
| 46042_TS_DEWT_122001.nc | 26-Dec-2024 18:06 | 630084 | ||
| 46042_TS_DEWT_122019.nc | 26-Dec-2024 18:53 | 629286 | ||
| 46042_TS_DEWT_122020.nc | 26-Dec-2024 18:59 | 629591 | ||
| 46042_TS_DEWT_122021.nc | 26-Dec-2024 19:04 | 478659 | ||